Tracking 35237 objects as of 6-Sep-2026
HD Live streaming from Space Station
objects crossing your sky now

IRIDIUM 33 DEB


IRIDIUM 33 DEB is no longer on orbit


NORAD ID: 34511
Int'l Code: 1997-051HC
Launch date: September 14, 1997
Source: United States (US)
Launch site: TYURATAM MISSILE AND SPACE COMPLEX (TTMTR)
Decay date: 2024-10-08

Note: This is SATELLITE DEBRIS
Your satellite tracking list
Your tracking list is empty




NASA's NSSDC Master Catalog

Two Line Element Set (TLE):
1 34511U 97051HC  24282.29753058  .07464549  71733-1  40899-1 0  9995
2 34511  86.3473 205.5453 0025560 147.4437 212.8424 15.84239406824109
Source of the keplerian elements: AFSPC